| time (UTC) | temp C | wind direction | speed KPH | gust KPH | rain 1hr cm | rain 24hr cm | rain mn cm | humidity % | barometer mb |
| 20260506160041 | 23 | 227 | 0.0 | 11.3 | 0.00 | 0.00 | 0.00 | 73 | 1016.6 |
| 20260506155543 | 23 | 281 | 4.8 | 12.9 | 0.00 | 0.00 | 0.00 | 72 | 1016.6 |
| 20260506155039 | 24 | 350 | 1.6 | 12.9 | 0.00 | 0.00 | 0.00 | 71 | 1016.4 |
| 20260506154538 | 24 | 239 | 3.2 | 11.3 | 0.00 | 0.00 | 0.00 | 71 | 1016.4 |
| 20260506154038 | 24 | 204 | 6.4 | 11.3 | 0.00 | 0.00 | 0.00 | 72 | 1016.4 |
| 20260506153535 | 24 | 227 | 4.8 | 11.3 | 0.00 | 0.00 | 0.00 | 72 | 1016.5 |
| 20260506153034 | 23 | 259 | 1.6 | 9.7 | 0.00 | 0.00 | 0.00 | 73 | 1016.4 |
| 20260506152533 | 23 | 224 | 1.6 | 11.3 | 0.00 | 0.00 | 0.00 | 74 | 1016.5 |
| 20260506152031 | 23 | 238 | 3.2 | 11.3 | 0.00 | 0.00 | 0.00 | 74 | 1016.4 |
| 20260506151530 | 23 | 208 | 3.2 | 12.9 | 0.00 | 0.00 | 0.00 | 74 | 1016.5 |
| 20260506151028 | 22 | 211 | 1.6 | 11.3 | 0.00 | 0.00 | 0.00 | 75 | 1016.4 |
| 20260506150527 | 22 | 248 | 0.0 | 11.3 | 0.00 | 0.00 | 0.00 | 75 | 1016.5 |
| 20260506150026 | 22 | 210 | 0.0 | 12.9 | 0.00 | 0.00 | 0.00 | 76 | 1016.5 |
| 20260506145526 | 22 | 248 | 3.2 | 14.5 | 0.00 | 0.00 | 0.00 | 75 | 1016.5 |
| 20260506145026 | 22 | 281 | 4.8 | 14.5 | 0.00 | 0.00 | 0.00 | 75 | 1016.6 |
| 20260506144626 | 22 | 209 | 1.6 | 16.1 | 0.00 | 0.00 | 0.00 | 76 | 1016.4 |
| 20260506144024 | 22 | 237 | 4.8 | 16.1 | 0.00 | 0.00 | 0.00 | 76 | 1016.4 |
| 20260506143524 | 22 | 219 | 3.2 | 11.3 | 0.00 | 0.00 | 0.00 | 75 | 1016.4 |
| 20260506143026 | 22 | 261 | 0.0 | 12.9 | 0.00 | 0.00 | 0.00 | 76 | 1016.5 |
| 20260506142521 | 21 | 226 | 3.2 | 12.9 | 0.00 | 0.00 | 0.00 | 77 | 1016.5 |
| 20260506142020 | 21 | 360 | 3.2 | 9.7 | 0.00 | 0.00 | 0.00 | 78 | 1016.5 |
| 20260506141521 | 21 | 273 | 1.6 | 11.3 | 0.00 | 0.00 | 0.00 | 78 | 1016.4 |
| 20260506141018 | 21 | 240 | 0.0 | 12.9 | 0.00 | 0.00 | 0.00 | 78 | 1016.4 |
| 20260506140517 | 21 | 278 | 1.6 | 12.9 | 0.00 | 0.00 | 0.00 | 78 | 1016.4 |
| 20260506140017 | 20 | 238 | 0.0 | 8.0 | 0.00 | 0.00 | 0.00 | 78 | 1016.3 |
| 20260506135516 | 20 | 214 | 0.0 | 8.0 | 0.00 | 0.00 | 0.00 | 78 | 1016.3 |
| 20260506135023 | 20 | 218 | 1.6 | 12.9 | 0.00 | 0.00 | 0.00 | 78 | 1016.2 |
| 20260506134516 | 20 | 267 | 3.2 | 12.9 | 0.00 | 0.00 | 0.00 | 77 | 1016.3 |
| 20260506134116 | 20 | 246 | 3.2 | 12.9 | 0.00 | 0.00 | 0.00 | 77 | 1016.4 |
| 20260506133515 | 20 | 240 | 3.2 | 14.5 | 0.00 | 0.00 | 0.00 | 78 | 1016.4 |
| 20260506133018 | 20 | 279 | 1.6 | 19.3 | 0.00 | 0.00 | 0.00 | 77 | 1016.5 |
| 20260506132519 | 21 | 246 | 8.0 | 19.3 | 0.00 | 0.00 | 0.00 | 77 | 1016.3 |
| 20260506132014 | 20 | 360 | 0.0 | 12.9 | 0.00 | 0.00 | 0.00 | 79 | 1016.4 |
| 20260506131512 | 20 | 235 | 3.2 | 14.5 | 0.00 | 0.00 | 0.00 | 79 | 1016.3 |
| 20260506131012 | 20 | 252 | 3.2 | 14.5 | 0.00 | 0.00 | 0.00 | 79 | 1016.4 |
| 20260506130511 | 20 | 308 | 1.6 | 11.3 | 0.00 | 0.00 | 0.00 | 80 | 1016.4 |
| 20260506130015 | 20 | 257 | 1.6 | 11.3 | 0.00 | 0.00 | 0.00 | 80 | 1016.1 |
| 20260506125508 | 20 | 229 | 1.6 | 11.3 | 0.00 | 0.00 | 0.00 | 81 | 1015.9 |
| 20260506125007 | 19 | 246 | 1.6 | 11.3 | 0.00 | 0.00 | 0.00 | 82 | 1015.8 |
| 20260506124506 | 19 | 224 | 1.6 | 11.3 | 0.00 | 0.00 | 0.00 | 83 | 1015.8 |
| 20260506124006 | 19 | 228 | 0.0 | 9.7 | 0.00 | 0.00 | 0.00 | 84 | 1015.9 |
| 20260506123510 | 19 | 277 | 1.6 | 11.3 | 0.00 | 0.00 | 0.00 | 84 | 1015.8 |
| 20260506123006 | 19 | 235 | 1.6 | 9.7 | 0.00 | 0.00 | 0.00 | 84 | 1015.8 |
| 20260506122505 | 19 | 244 | 1.6 | 9.7 | 0.00 | 0.00 | 0.00 | 85 | 1015.7 |
| 20260506122008 | 19 | 226 | 0.0 | 11.3 | 0.00 | 0.00 | 0.00 | 85 | 1015.7 |
| 20260506121505 | 18 | 232 | 1.6 | 8.0 | 0.00 | 0.00 | 0.00 | 85 | 1015.7 |
| 20260506121004 | 18 | 232 | 1.6 | 6.4 | 0.00 | 0.00 | 0.00 | 85 | 1015.6 |
| 20260506120503 | 18 | 203 | 0.0 | 9.7 | 0.00 | 0.00 | 0.00 | 86 | 1015.6 |
| 20260506120001 | 18 | 268 | 1.6 | 9.7 | 0.00 | 0.00 | 0.00 | 87 | 1015.4 |
| 20260506115601 | 18 | 248 | 0.0 | 9.7 | 0.00 | 0.00 | 0.00 | 87 | 1015.4 |
| 20260506115100 | 18 | 232 | 1.6 | 9.7 | 0.00 | 0.00 | 0.00 | 87 | 1015.1 |
| 20260506114559 | 17 | 209 | 1.6 | 9.7 | 0.00 | 0.00 | 0.00 | 87 | 1015.3 |
| 20260506114100 | 17 | 229 | 1.6 | 9.7 | 0.00 | 0.00 | 0.00 | 88 | 1015.2 |
| 20260506113600 | 17 | 217 | 0.0 | 9.7 | 0.00 | 0.00 | 0.00 | 88 | 1015.1 |
| 20260506113101 | 17 | 223 | 1.6 | 9.7 | 0.00 | 0.00 | 0.00 | 88 | 1015.2 |
| 20260506112600 | 17 | 223 | 0.0 | 6.4 | 0.00 | 0.00 | 0.00 | 88 | 1015.2 |
| 20260506112058 | 16 | 232 | 1.6 | 8.0 | 0.00 | 0.00 | 0.00 | 88 | 1015.1 |
| 20260506111600 | 16 | 214 | 1.6 | 9.7 | 0.00 | 0.00 | 0.00 | 88 | 1015.1 |
| 20260506111100 | 16 | 205 | 3.2 | 9.7 | 0.00 | 0.00 | 0.00 | 88 | 1015.0 |
| 20260506110557 | 16 | 226 | 1.6 | 8.0 | 0.00 | 0.00 | 0.00 | 88 | 1014.9 |
| 20260506110058 | 16 | 224 | 1.6 | 8.0 | 0.00 | 0.00 | 0.00 | 88 | 1015.0 |
| 20260506105557 | 16 | 221 | 3.2 | 8.0 | 0.00 | 0.00 | 0.00 | 88 | 1015.1 |
| 20260506105100 | 16 | 201 | 1.6 | 6.4 | 0.00 | 0.00 | 0.00 | 89 | 1015.1 |
| 20260506104600 | 16 | 226 | 1.6 | 6.4 | 0.00 | 0.00 | 0.00 | 88 | 1015.0 |
| 20260506104057 | 16 | 216 | 0.0 | 8.0 | 0.00 | 0.00 | 0.00 | 88 | 1014.9 |
| 20260506103556 | 16 | 210 | 3.2 | 8.0 | 0.00 | 0.00 | 0.00 | 88 | 1015.0 |
| 20260506103056 | 16 | 215 | 0.0 | 0.0 | 0.00 | 0.00 | 0.00 | 88 | 1015.0 |
| 20260506102556 | 16 | 225 | 0.0 | 0.0 | 0.00 | 0.00 | 0.00 | 88 | 1015.1 |
| 20260506102056 | 16 | 223 | 0.0 | 0.0 | 0.00 | 0.00 | 0.00 | 88 | 1015.0 |
| 20260506101555 | 16 | 222 | 0.0 | 0.0 | 0.00 | 0.00 | 0.00 | 87 | 1014.9 |
| 20260506101056 | 16 | 211 | 0.0 | 0.0 | 0.00 | 0.00 | 0.00 | 88 | 1015.1 |
| 20260506100553 | 16 | 227 | 0.0 | 0.0 | 0.00 | 0.00 | 0.00 | 88 | 1015.2 |
| 20260506095553 | 16 | 229 | 0.0 | 0.0 | 0.00 | 0.00 | 0.00 | 88 | 1015.2 |
| 20260506095054 | 16 | 240 | 0.0 | 0.0 | 0.00 | 0.00 | 0.00 | 88 | 1015.2 |
| 20260506094608 | 16 | 239 | 0.0 | 0.0 | 0.00 | 0.00 | 0.00 | 88 | 1015.1 |
| 20260506094055 | 16 | 228 | 0.0 | 0.0 | 0.00 | 0.00 | 0.00 | 88 | 1015.1 |
| 20260506093555 | 16 | 238 | 0.0 | 0.0 | 0.00 | 0.00 | 0.00 | 88 | 1015.2 |
| 20260506093051 | 16 | 243 | 0.0 | 0.0 | 0.00 | 0.00 | 0.00 | 87 | 1015.3 |
| 20260506092551 | 16 | 240 | 0.0 | 0.0 | 0.00 | 0.00 | 0.00 | 87 | 1015.3 |
| 20260506092050 | 16 | 239 | 0.0 | 0.0 | 0.00 | 0.00 | 0.00 | 86 | 1015.2 |
| 20260506091549 | 16 | 240 | 0.0 | 0.0 | 0.00 | 0.00 | 0.00 | 86 | 1015.3 |
| 20260506091049 | 16 | 239 | 0.0 | 0.0 | 0.00 | 0.00 | 0.00 | 86 | 1015.3 |
| 20260506090547 | 16 | 240 | 0.0 | 0.0 | 0.00 | 0.00 | 0.00 | 85 | 1015.4 |
| 20260506090047 | 16 | 242 | 0.0 | 0.0 | 0.00 | 0.00 | 0.00 | 85 | 1015.3 |
| 20260506085547 | 16 | 240 | 0.0 | 0.0 | 0.00 | 0.00 | 0.00 | 85 | 1015.5 |
| 20260506085048 | 16 | 229 | 0.0 | 0.0 | 0.00 | 0.00 | 0.00 | 85 | 1015.4 |
| 20260506084551 | 16 | 225 | 0.0 | 0.0 | 0.00 | 0.00 | 0.00 | 85 | 1015.5 |
| 20260506084047 | 16 | 234 | 0.0 | 0.0 | 0.00 | 0.00 | 0.00 | 85 | 1015.6 |
| 20260506083548 | 16 | 219 | 0.0 | 0.0 | 0.00 | 0.00 | 0.00 | 84 | 1015.7 |
| 20260506083053 | 16 | 222 | 0.0 | 0.0 | 0.00 | 0.00 | 0.00 | 84 | 1015.7 |
| 20260506082549 | 16 | 233 | 0.0 | 0.0 | 0.00 | 0.00 | 0.00 | 84 | 1015.7 |
| 20260506082045 | 16 | 219 | 0.0 | 0.0 | 0.00 | 0.00 | 0.00 | 84 | 1015.7 |
| 20260506081545 | 16 | 219 | 0.0 | 4.8 | 0.00 | 0.00 | 0.00 | 84 | 1015.6 |
| 20260506081046 | 16 | 211 | 0.0 | 4.8 | 0.00 | 0.00 | 0.00 | 84 | 1015.5 |
| 20260506080546 | 16 | 224 | 0.0 | 0.0 | 0.00 | 0.00 | 0.00 | 84 | 1015.6 |
| 20260506073047 | 16 | 221 | 0.0 | 0.0 | 0.00 | 0.00 | 0.00 | 84 | 1015.5 |
| 20260506072545 | 16 | 221 | 0.0 | 1.6 | 0.00 | 0.00 | 0.00 | 84 | 1015.5 |
| 20260506072043 | 16 | 221 | 0.0 | 3.2 | 0.00 | 0.00 | 0.00 | 83 | 1015.4 |
| 20260506071542 | 16 | 221 | 0.0 | 3.2 | 0.00 | 0.00 | 0.00 | 83 | 1015.4 |
| 20260506071042 | 16 | 200 | 0.0 | 1.6 | 0.00 | 0.00 | 0.00 | 83 | 1015.5 |
| 20260506070540 | 16 | 200 | 0.0 | 0.0 | 0.00 | 0.00 | 0.00 | 82 | 1015.5 |
| 20260506062034 | 17 | 203 | 0.0 | 1.6 | 0.00 | 0.00 | 0.00 | 81 | 1016.0 |
| 20260506061534 | 17 | 237 | 0.0 | 1.6 | 0.00 | 0.00 | 0.00 | 81 | 1016.0 |
| 20260506061034 | 17 | 238 | 0.0 | 1.6 | 0.00 | 0.00 | 0.00 | 80 | 1016.0 |
| 20260506060533 | 17 | 238 | 0.0 | 3.2 | 0.00 | 0.00 | 0.00 | 80 | 1016.0 |
| 20260506051028 | 17 | 224 | 3.2 | 9.7 | 0.00 | 0.00 | 0.00 | 80 | 1016.1 |
| 20260506050526 | 17 | 218 | 3.2 | 9.7 | 0.00 | 0.00 | 0.00 | 80 | 1016.1 |
| 20260506045023 | 17 | 186 | 1.6 | 8.0 | 0.00 | 0.00 | 0.00 | 80 | 1016.3 |
| 20260506044534 | 17 | 208 | 3.2 | 8.0 | 0.00 | 0.00 | 0.00 | 80 | 1016.3 |
| 20260506044022 | 17 | 225 | 1.6 | 6.4 | 0.00 | 0.00 | 0.00 | 80 | 1016.4 |
| 20260506043522 | 17 | 205 | 1.6 | 6.4 | 0.00 | 0.00 | 0.00 | 80 | 1016.4 |
| 20260506043024 | 17 | 198 | 1.6 | 9.7 | 0.00 | 0.00 | 0.00 | 80 | 1016.4 |
| 20260506042520 | 17 | 203 | 1.6 | 12.9 | 0.00 | 0.00 | 0.00 | 80 | 1016.4 |
| 20260506042019 | 18 | 195 | 3.2 | 12.9 | 0.00 | 0.00 | 0.00 | 79 | 1016.4 |
| 20260506041520 | 18 | 204 | 1.6 | 9.7 | 0.00 | 0.00 | 0.00 | 79 | 1016.5 |
| 20260506041020 | 18 | 175 | 0.0 | 9.7 | 0.00 | 0.00 | 0.00 | 79 | 1016.6 |
| 20260506040518 | 18 | 223 | 4.8 | 9.7 | 0.00 | 0.00 | 0.00 | 79 | 1016.6 |
| 20260506040015 | 18 | 225 | 3.2 | 6.4 | 0.00 | 0.00 | 0.00 | 79 | 1016.7 |
| 20260506035516 | 18 | 227 | 1.6 | 9.7 | 0.00 | 0.00 | 0.00 | 79 | 1016.6 |
| 20260506035017 | 18 | 238 | 3.2 | 9.7 | 0.00 | 0.00 | 0.00 | 79 | 1016.4 |
| 20260506034514 | 18 | 216 | 1.6 | 9.7 | 0.00 | 0.00 | 0.00 | 78 | 1016.5 |
| 20260506034015 | 18 | 227 | 3.2 | 9.7 | 0.00 | 0.00 | 0.00 | 78 | 1016.4 |
| 20260506033514 | 18 | 200 | 3.2 | 6.4 | 0.00 | 0.00 | 0.00 | 78 | 1016.3 |
| 20260506033015 | 18 | 232 | 1.6 | 9.7 | 0.00 | 0.00 | 0.00 | 78 | 1016.4 |
| 20260506032515 | 18 | 219 | 3.2 | 12.9 | 0.00 | 0.00 | 0.00 | 78 | 1016.3 |
| 20260506032014 | 18 | 208 | 1.6 | 12.9 | 0.00 | 0.00 | 0.00 | 77 | 1016.3 |
| 20260506031514 | 18 | 157 | 1.6 | 9.7 | 0.00 | 0.00 | 0.00 | 77 | 1016.4 |
| 20260506031014 | 18 | 186 | 1.6 | 12.9 | 0.00 | 0.00 | 0.00 | 77 | 1016.5 |
| 20260506030515 | 18 | 225 | 3.2 | 12.9 | 0.00 | 0.00 | 0.00 | 77 | 1016.4 |
| 20260506030013 | 18 | 190 | 3.2 | 11.3 | 0.00 | 0.00 | 0.00 | 76 | 1016.5 |
| 20260506025512 | 18 | 199 | 1.6 | 6.4 | 0.00 | 0.00 | 0.00 | 76 | 1016.6 |
| 20260506025014 | 18 | 205 | 1.6 | 11.3 | 0.00 | 0.00 | 0.00 | 76 | 1016.7 |
| 20260506024518 | 19 | 192 | 4.8 | 11.3 | 0.00 | 0.00 | 0.00 | 76 | 1016.6 |
| 20260506024016 | 19 | 202 | 3.2 | 8.0 | 0.00 | 0.00 | 0.00 | 75 | 1016.7 |
| 20260506023513 | 19 | 196 | 1.6 | 8.0 | 0.00 | 0.00 | 0.00 | 75 | 1016.9 |
| 20260506023017 | 19 | 226 | 0.0 | 8.0 | 0.00 | 0.00 | 0.00 | 75 | 1016.8 |
| 20260506022513 | 19 | 183 | 3.2 | 9.7 | 0.00 | 0.00 | 0.00 | 74 | 1016.7 |
| 20260506022012 | 20 | 194 | 1.6 | 12.9 | 0.00 | 0.00 | 0.00 | 74 | 1016.8 |
| 20260506021512 | 20 | 210 | 6.4 | 14.5 | 0.00 | 0.00 | 0.00 | 74 | 1016.8 |
| 20260506021018 | 20 | 196 | 3.2 | 14.5 | 0.00 | 0.00 | 0.00 | 73 | 1016.7 |
| 20260506020515 | 20 | 161 | 6.4 | 16.1 | 0.00 | 0.00 | 0.00 | 73 | 1016.5 |
| 20260506020011 | 20 | 224 | 8.0 | 14.5 | 0.00 | 0.00 | 0.00 | 73 | 1016.5 |
| 20260506015511 | 20 | 227 | 4.8 | 12.9 | 0.00 | 0.00 | 0.00 | 73 | 1016.5 |
| 20260506015011 | 20 | 219 | 4.8 | 12.9 | 0.00 | 0.00 | 0.00 | 72 | 1016.6 |
| 20260506014514 | 20 | 217 | 3.2 | 12.9 | 0.00 | 0.00 | 0.00 | 72 | 1016.4 |
| 20260506014010 | 20 | 193 | 6.4 | 17.7 | 0.00 | 0.00 | 0.00 | 71 | 1016.3 |
| 20260506013510 | 20 | 209 | 8.0 | 17.7 | 0.00 | 0.00 | 0.00 | 71 | 1016.2 |
| 20260506013011 | 20 | 209 | 6.4 | 17.7 | 0.00 | 0.00 | 0.00 | 71 | 1016.1 |
| 20260506012510 | 20 | 201 | 8.0 | 17.7 | 0.00 | 0.00 | 0.00 | 70 | 1016.0 |
| 20260506012013 | 21 | 187 | 8.0 | 16.1 | 0.00 | 0.00 | 0.00 | 70 | 1015.8 |
| 20260506011530 | 21 | 162 | 3.2 | 19.3 | 0.00 | 0.00 | 0.00 | 69 | 1015.9 |
| 20260506011015 | 21 | 268 | 6.4 | 27.4 | 0.00 | 0.00 | 0.00 | 69 | 1015.8 |
| 20260506010509 | 21 | 199 | 11.3 | 27.4 | 0.00 | 0.00 | 0.00 | 68 | 1015.7 |
| 20260506010009 | 21 | 175 | 9.7 | 19.3 | 0.00 | 0.00 | 0.00 | 67 | 1015.5 |
| 20260506005511 | 21 | 206 | 8.0 | 16.1 | 0.00 | 0.00 | 0.00 | 67 | 1015.5 |
| 20260506005008 | 21 | 203 | 3.2 | 14.5 | 0.00 | 0.00 | 0.00 | 66 | 1015.4 |
| 20260506004520 | 21 | 163 | 4.8 | 19.3 | 0.00 | 0.00 | 0.00 | 66 | 1015.3 |
| 20260506004012 | 21 | 214 | 6.4 | 19.3 | 0.00 | 0.00 | 0.00 | 65 | 1015.3 |
| 20260506003508 | 22 | 205 | 8.0 | 19.3 | 0.00 | 0.00 | 0.00 | 64 | 1015.3 |
| 20260506003009 | 22 | 183 | 6.4 | 16.1 | 0.00 | 0.00 | 0.00 | 64 | 1015.4 |
| 20260506002508 | 22 | 223 | 6.4 | 17.7 | 0.00 | 0.00 | 0.00 | 63 | 1015.3 |
| 20260506002008 | 22 | 162 | 4.8 | 24.1 | 0.00 | 0.00 | 0.00 | 62 | 1015.3 |
| 20260506001508 | 22 | 171 | 6.4 | 24.1 | 0.00 | 0.00 | 0.00 | 61 | 1015.2 |
| 20260506001008 | 22 | 219 | 6.4 | 17.7 | 0.00 | 0.00 | 0.00 | 61 | 1015.2 |
| 20260506000512 | 22 | 213 | 8.0 | 17.7 | 0.00 | 0.00 | 0.00 | 60 | 1015.2 |
| 20260506000006 | 23 | 223 | 6.4 | 22.5 | 0.00 | 0.00 | 0.00 | 60 | 1015.2 |
| 20260505235506 | 23 | 171 | 11.3 | 25.7 | 0.00 | 0.00 | 0.00 | 59 | 1015.2 |
| 20260505235107 | 23 | 181 | 3.2 | 12.9 | 0.00 | 0.00 | 0.00 | 59 | 1015.1 |
| 20260505234508 | 23 | 194 | 8.0 | 20.9 | 0.00 | 0.00 | 0.00 | 58 | 1015.1 |
| 20260505234012 | 23 | 185 | 9.7 | 20.9 | 0.00 | 0.00 | 0.00 | 58 | 1015.2 |
| 20260505233506 | 23 | 212 | 9.7 | 22.5 | 0.00 | 0.00 | 0.00 | 58 | 1015.2 |
| 20260505233005 | 23 | 206 | 11.3 | 19.3 | 0.00 | 0.00 | 0.00 | 57 | 1015.2 |
| 20260505232508 | 23 | 197 | 6.4 | 19.3 | 0.00 | 0.00 | 0.00 | 57 | 1015.1 |
| 20260505232008 | 24 | 155 | 8.0 | 22.5 | 0.00 | 0.00 | 0.00 | 57 | 1015.1 |
| 20260505231505 | 24 | 156 | 8.0 | 22.5 | 0.00 | 0.00 | 0.00 | 57 | 1015.0 |
| 20260505231004 | 24 | 205 | 11.3 | 22.5 | 0.00 | 0.00 | 0.00 | 56 | 1014.9 |
| 20260505230504 | 25 | 360 | 8.0 | 20.9 | 0.00 | 0.00 | 0.00 | 56 | 1014.8 |
| 20260505230006 | 25 | 173 | 6.4 | 20.9 | 0.00 | 0.00 | 0.00 | 55 | 1014.6 |
| 20260505225507 | 25 | 202 | 6.4 | 19.3 | 0.00 | 0.00 | 0.00 | 55 | 1014.7 |
| 20260505225003 | 25 | 156 | 9.7 | 19.3 | 0.00 | 0.00 | 0.00 | 55 | 1014.7 |
| 20260505224502 | 25 | 194 | 6.4 | 20.9 | 0.00 | 0.00 | 0.00 | 54 | 1014.8 |
| 20260505224001 | 25 | 198 | 8.0 | 22.5 | 0.00 | 0.00 | 0.00 | 54 | 1014.9 |
| 20260505223501 | 25 | 200 | 8.0 | 24.1 | 0.00 | 0.00 | 0.00 | 54 | 1014.8 |
| 20260505223002 | 25 | 148 | 8.0 | 24.1 | 0.00 | 0.00 | 0.00 | 53 | 1014.9 |
| 20260505222500 | 26 | 188 | 8.0 | 17.7 | 0.00 | 0.00 | 0.00 | 52 | 1014.9 |
| 20260505222003 | 26 | 206 | 4.8 | 11.3 | 0.00 | 0.00 | 0.00 | 49 | 1014.9 |
| 20260505221502 | 26 | 234 | 4.8 | 12.9 | 0.00 | 0.00 | 0.00 | 49 | 1014.9 |
| 20260505221001 | 26 | 205 | 4.8 | 14.5 | 0.00 | 0.00 | 0.00 | 49 | 1015.0 |
| 20260505220600 | 26 | 201 | 4.8 | 17.7 | 0.00 | 0.00 | 0.00 | 50 | 1015.0 |
| 20260505220501 | 26 | 219 | 6.4 | 17.7 | 0.00 | 0.00 | 0.00 | 49 | 1015.0 |
| 20260505220108 | 26 | 209 | 6.4 | 17.7 | 0.00 | 0.00 | 0.00 | 50 | 1015.0 |
| 20260505215559 | 26 | 167 | 8.0 | 16.1 | 0.00 | 0.00 | 0.00 | 49 | 1015.0 |
| 20260505215100 | 26 | 88 | 6.4 | 12.9 | 0.00 | 0.00 | 0.00 | 48 | 1014.9 |
| 20260505214602 | 26 | 183 | 3.2 | 17.7 | 0.00 | 0.00 | 0.00 | 48 | 1015.0 |
| 20260505214058 | 26 | 139 | 4.8 | 17.7 | 0.00 | 0.00 | 0.00 | 47 | 1015.0 |
| 20260505213558 | 27 | 151 | 8.0 | 16.1 | 0.00 | 0.00 | 0.00 | 47 | 1014.9 |
| 20260505213058 | 27 | 206 | 4.8 | 14.5 | 0.00 | 0.00 | 0.00 | 45 | 1015.0 |
| 20260505212557 | 27 | 215 | 6.4 | 24.1 | 0.00 | 0.00 | 0.00 | 45 | 1014.9 |
| 20260505212058 | 27 | 226 | 12.9 | 22.5 | 0.00 | 0.00 | 0.00 | 43 | 1015.0 |
| 20260505211557 | 27 | 236 | 1.6 | 17.7 | 0.00 | 0.00 | 0.00 | 44 | 1015.1 |
| 20260505211057 | 27 | 222 | 6.4 | 17.7 | 0.00 | 0.00 | 0.00 | 43 | 1015.2 |
| 20260505210556 | 27 | 171 | 8.0 | 17.7 | 0.00 | 0.00 | 0.00 | 42 | 1015.3 |
| 20260505210055 | 27 | 227 | 8.0 | 19.3 | 0.00 | 0.00 | 0.00 | 44 | 1015.2 |
| 20260505205555 | 27 | 215 | 8.0 | 19.3 | 0.00 | 0.00 | 0.00 | 43 | 1015.3 |
| 20260505205054 | 27 | 195 | 9.7 | 17.7 | 0.00 | 0.00 | 0.00 | 40 | 1015.3 |
| 20260505204600 | 28 | 179 | 3.2 | 12.9 | 0.00 | 0.00 | 0.00 | 40 | 1015.3 |
| 20260505204053 | 28 | 214 | 4.8 | 17.7 | 0.00 | 0.00 | 0.00 | 42 | 1015.3 |
| 20260505203556 | 27 | 213 | 6.4 | 17.7 | 0.00 | 0.00 | 0.00 | 43 | 1015.5 |
| 20260505203056 | 27 | 225 | 3.2 | 12.9 | 0.00 | 0.00 | 0.00 | 43 | 1015.3 |
| 20260505202553 | 27 | 244 | 1.6 | 12.9 | 0.00 | 0.00 | 0.00 | 44 | 1015.3 |
| 20260505202052 | 27 | 232 | 4.8 | 17.7 | 0.00 | 0.00 | 0.00 | 43 | 1015.5 |
| 20260505201552 | 27 | 188 | 8.0 | 17.7 | 0.00 | 0.00 | 0.00 | 46 | 1015.5 |
| 20260505201051 | 27 | 157 | 4.8 | 16.1 | 0.00 | 0.00 | 0.00 | 45 | 1015.5 |
| 20260505200551 | 27 | 207 | 9.7 | 16.1 | 0.00 | 0.00 | 0.00 | 45 | 1015.6 |
| 20260505200049 | 27 | 21 | 3.2 | 20.9 | 0.00 | 0.00 | 0.00 | 45 | 1015.6 |
| 20260505195548 | 26 | 157 | 1.6 | 20.9 | 0.00 | 0.00 | 0.00 | 46 | 1015.7 |
| 20260505195049 | 26 | 178 | 4.8 | 19.3 | 0.00 | 0.00 | 0.00 | 46 | 1015.9 |
| 20260505194558 | 27 | 215 | 11.3 | 19.3 | 0.00 | 0.00 | 0.00 | 45 | 1016.0 |
| 20260505194048 | 27 | 202 | 6.4 | 19.3 | 0.00 | 0.00 | 0.00 | 46 | 1015.8 |
| 20260505193547 | 27 | 223 | 1.6 | 19.3 | 0.00 | 0.00 | 0.00 | 45 | 1015.9 |
| 20260505193047 | 27 | 220 | 9.7 | 17.7 | 0.00 | 0.00 | 0.00 | 43 | 1016.2 |
| 20260505192550 | 27 | 219 | 4.8 | 19.3 | 0.00 | 0.00 | 0.00 | 47 | 1016.3 |
| 20260505192047 | 27 | 180 | 8.0 | 17.7 | 0.00 | 0.00 | 0.00 | 44 | 1016.5 |
| 20260505191548 | 27 | 212 | 4.8 | 14.5 | 0.00 | 0.00 | 0.00 | 46 | 1016.5 |
| 20260505191046 | 27 | 192 | 6.4 | 16.1 | 0.00 | 0.00 | 0.00 | 45 | 1016.7 |
| 20260505190546 | 27 | 190 | 6.4 | 14.5 | 0.00 | 0.00 | 0.00 | 46 | 1016.7 |
| 20260505190048 | 27 | 242 | 4.8 | 22.5 | 0.00 | 0.00 | 0.00 | 45 | 1016.7 |
| 20260505185545 | 27 | 220 | 8.0 | 22.5 | 0.00 | 0.00 | 0.00 | 44 | 1016.9 |
| 20260505185047 | 27 | 254 | 1.6 | 17.7 | 0.00 | 0.00 | 0.00 | 45 | 1016.8 |
| 20260505184551 | 27 | 214 | 9.7 | 17.7 | 0.00 | 0.00 | 0.00 | 43 | 1016.9 |
| 20260505184045 | 28 | 205 | 8.0 | 17.7 | 0.00 | 0.00 | 0.00 | 44 | 1016.8 |
| 20260505183547 | 27 | 193 | 1.6 | 14.5 | 0.00 | 0.00 | 0.00 | 45 | 1016.9 |
| 20260505183050 | 27 | 237 | 4.8 | 14.5 | 0.00 | 0.00 | 0.00 | 45 | 1016.8 |
| 20260505182542 | 27 | 261 | 3.2 | 14.5 | 0.00 | 0.00 | 0.00 | 45 | 1016.9 |
| 20260505182041 | 27 | 207 | 3.2 | 16.1 | 0.00 | 0.00 | 0.00 | 43 | 1016.8 |
| 20260505181542 | 27 | 207 | 3.2 | 14.5 | 0.00 | 0.00 | 0.00 | 46 | 1016.7 |
| 20260505181042 | 26 | 239 | 3.2 | 14.5 | 0.00 | 0.00 | 0.00 | 46 | 1016.7 |
| 20260505180540 | 26 | 156 | 4.8 | 17.7 | 0.00 | 0.00 | 0.00 | 44 | 1016.8 |
| 20260505180040 | 26 | 192 | 6.4 | 17.7 | 0.00 | 0.00 | 0.00 | 44 | 1016.8 |
| 20260505175540 | 27 | 166 | 6.4 | 14.5 | 0.00 | 0.00 | 0.00 | 43 | 1017.0 |
| 20260505175041 | 26 | 216 | 6.4 | 16.1 | 0.00 | 0.00 | 0.00 | 44 | 1016.9 |
| 20260505174542 | 27 | 271 | 1.6 | 9.7 | 0.00 | 0.00 | 0.00 | 46 | 1016.9 |
| 20260505174039 | 27 | 300 | 3.2 | 11.3 | 0.00 | 0.00 | 0.00 | 47 | 1017.0 |
| 20260505173539 | 27 | 304 | 1.6 | 11.3 | 0.00 | 0.00 | 0.00 | 45 | 1017.0 |
| 20260505173038 | 26 | 339 | 3.2 | 14.5 | 0.00 | 0.00 | 0.00 | 44 | 1017.0 |
| 20260505172535 | 26 | 221 | 4.8 | 20.9 | 0.00 | 0.00 | 0.00 | 44 | 1017.1 |
| 20260505172035 | 26 | 174 | 6.4 | 20.9 | 0.00 | 0.00 | 0.00 | 48 | 1017.2 |
| 20260505171535 | 25 | 173 | 6.4 | 17.7 | 0.00 | 0.00 | 0.00 | 49 | 1017.3 |
| 20260505171034 | 25 | 275 | 11.3 | 17.7 | 0.00 | 0.00 | 0.00 | 48 | 1017.5 |
| 20260505170534 | 25 | 15 | 0.0 | 12.9 | 0.00 | 0.00 | 0.00 | 53 | 1017.5 |
| 20260505170033 | 25 | 205 | 9.7 | 12.9 | 0.00 | 0.00 | 0.00 | 49 | 1017.6 |
| 20260505165533 | 26 | 225 | 1.6 | 16.1 | 0.00 | 0.00 | 0.00 | 52 | 1017.5 |
| 20260505165132 | 26 | 223 | 8.0 | 16.1 | 0.00 | 0.00 | 0.00 | 51 | 1017.7 |
| 20260505164550 | 26 | 211 | 3.2 | 17.7 | 0.00 | 0.00 | 0.00 | 52 | 1017.8 |
| 20260505164031 | 25 | 216 | 8.0 | 17.7 | 0.00 | 0.00 | 0.00 | 53 | 1017.9 |
| 20260505163530 | 25 | 111 | 6.4 | 19.3 | 0.00 | 0.00 | 0.00 | 52 | 1018.0 |
| 20260505163030 | 26 | 219 | 8.0 | 20.9 | 0.00 | 0.00 | 0.00 | 52 | 1018.0 |
| 20260505162530 | 26 | 186 | 4.8 | 12.9 | 0.00 | 0.00 | 0.00 | 52 | 1018.0 |
| 20260505162029 | 26 | 211 | 4.8 | 14.5 | 0.00 | 0.00 | 0.00 | 52 | 1018.1 |
| 20260505161533 | 25 | 213 | 3.2 | 14.5 | 0.00 | 0.00 | 0.00 | 53 | 1018.1 |
| 20260505161028 | 25 | 272 | 4.8 | 16.1 | 0.00 | 0.00 | 0.00 | 54 | 1018.2 |
| 20260505160528 | 25 | 140 | 4.8 | 16.1 | 0.00 | 0.00 | 0.00 | 54 | 1018.2 |